Minot, ND

3:51 AM CDT on March 25, 2017 (GMT -0500)
Minot International

Weather History for KMOT - July, 2012

Change the Weather History Date:

Saturday, July 21, 2012

  Actual Average Record
Temperature  
Mean Temperature 75 °F 70 °F  
Max Temperature 89 °F 82 °F 99 °F (1917)
Min Temperature 60 °F 58 °F 39 °F (1915)
Cooling Degree Days 10 6  
Month to date cooling degree days 225 108  
Year to date cooling degree days 305 197  
Since 1 June cooling degree days 300 181  
Growing Degree Days 24 (Base 50)    
Moisture  
Dew Point 59 °F    
Average Humidity 62    
Maximum Humidity 90    
Minimum Humidity 34    
Precipitation  
Precipitation 0.00 in 0.08 in 3.15 in (1935)
Month to date precipitation 0.52 1.80  
Year to date precipitation 9.54 10.77  
Sea Level Pressure  
Sea Level Pressure 30.01 in    
Wind  
Wind Speed 8 mph (East)    
Max Wind Speed 16 mph    
Max Gust Speed 21 mph    
Visibility 10 miles    
Events      
T = Trace of Precipitation, MM = Missing Value Source: NWS Daily Summary

Daily Weather History Graph

Daily Weather History Graph

Search for Another Location

Airport or City:

Trip Planner

Search our weather history database for the weather conditions in past years. The results will help you decide how hot, cold, wet, or windy it might be!

Date:

Astronomy

Jul. 21, 2012 Rise Set
Actual Time 6:07 AM CDT 9:34 PM CDT
Civil Twilight 5:28 AM CDT 10:13 PM CDT
Nautical Twilight 4:37 AM CDT 11:04 PM CDT
Astronomical Twilight 3:28 AM CDT 12:11 AM CDT
Moon 9:08 AM CDT (7/21) 10:26 PM CDT (7/21)
Length of Visible Light 16h 44m
Length of Day
15h 27m
Waxing Crescent, 7% of the Moon is Illuminated
Jul 21
Waxing Crescent
Jul 26
First Quarter
Aug 1
Full
Aug 9
Last Quarter
Aug 17
New

Hourly Weather History & Observations

Time (CDT) Temp. Heat Index Dew Point Humidity Pressure Visibility Wind Dir Wind Speed Gust Speed Precip Events Conditions
12:54 AM 66.9 °F - 60.1 °F 79% 30.07 in 10.0 mi ENE 3.5 mph - N/A   Clear
1:54 AM 66.0 °F - 59.0 °F 78% 30.08 in 10.0 mi Calm Calm - N/A   Clear
2:54 AM 64.9 °F - 59.0 °F 81% 30.09 in 10.0 mi Calm Calm - N/A   Clear
3:54 AM 64.9 °F - 57.9 °F 78% 30.09 in 10.0 mi Calm Calm - N/A   Clear
4:54 AM 62.1 °F - 59.0 °F 90% 30.08 in 10.0 mi North 5.8 mph - N/A   Clear
5:54 AM 61.0 °F - 57.9 °F 90% 30.07 in 10.0 mi North 3.5 mph - N/A   Clear
6:54 AM 62.1 °F - 57.9 °F 86% 30.09 in 10.0 mi NNW 8.1 mph - N/A   Clear
7:54 AM 64.9 °F - 59.0 °F 81% 30.11 in 10.0 mi North 3.5 mph - N/A   Clear
8:54 AM 68.0 °F - 59.0 °F 73% 30.09 in 10.0 mi East 4.6 mph - N/A   Clear
9:54 AM 72.0 °F - 59.0 °F 64% 30.09 in 10.0 mi ESE 9.2 mph - N/A   Clear
10:54 AM 77.0 °F - 57.9 °F 52% 30.07 in 10.0 mi ESE 12.7 mph - N/A   Clear
11:54 AM 80.1 °F 80.6 °F 57.9 °F 47% 30.06 in 10.0 mi East 12.7 mph - N/A   Clear
12:54 PM 82.9 °F 82.1 °F 55.9 °F 39% 30.04 in 10.0 mi East 13.8 mph - N/A   Clear
1:54 PM 84.0 °F 83.0 °F 55.9 °F 38% 30.01 in 10.0 mi ESE 15.0 mph 20.7 mph N/A   Clear
2:54 PM 84.0 °F 83.0 °F 55.9 °F 38% 30.01 in 10.0 mi ESE 12.7 mph - N/A   Clear
3:54 PM 88.0 °F 86.1 °F 55.0 °F 32% 29.99 in 10.0 mi SSE 9.2 mph - N/A   Clear
4:54 PM 87.1 °F 86.1 °F 57.9 °F 37% 29.97 in 10.0 mi SE 8.1 mph - N/A   Clear
5:54 PM 88.0 °F 86.9 °F 57.9 °F 36% 29.95 in 10.0 mi ESE 11.5 mph 16.1 mph N/A   Clear
6:54 PM 87.1 °F 86.7 °F 60.1 °F 40% 29.92 in 10.0 mi ESE 10.4 mph - N/A   Clear
7:54 PM 84.9 °F 84.4 °F 59.0 °F 41% 29.89 in 10.0 mi SE 12.7 mph - N/A   Clear
8:54 PM 79.0 °F - 61.0 °F 54% 29.90 in 10.0 mi ESE 6.9 mph - N/A   Clear
9:54 PM 78.1 °F - 62.1 °F 58% 29.90 in 10.0 mi SE 8.1 mph - N/A   Clear
10:54 PM 75.0 °F - 63.0 °F 66% 29.89 in 10.0 mi East 6.9 mph - N/A   Clear
11:54 PM 75.0 °F - 63.0 °F 66% 29.89 in 10.0 mi ESE 6.9 mph - N/A   Clear